STARLINK-32660, 62205

Orbit data source: Space-Track

STARLINK-32660, 62205 is a payload satellite owned by SpaceX/Seattle (US) in LEO that was launched on Wed, 04 Dec 2024 UTC via an FALCON 9 launch vehicle from the Air Force Eastern Test Range (AFETR). Payload-class satellites include a variety of spacecraft equipped with specific instruments for various scientific and technological missions. These include communications satellites like Starlink; space stations such as the ISS; scientific satellites like the Hubble; Earth observation satellites from companies like Planet Labs, Umbra, and HawkEye 360; GPS; miniature CubeSats for education and research; and military/defense satellites.

Loading next visibility...
Identifier
62205, 2024-229P
Orbit
LEO
Last TLE update
7 hours ago
Origin
Manufacturer
SpaceX/Seattle
Mission
Operational Commercial Communications
Bus & Motor
STARLINK V2M, Unknown motor
Mass
730 kg wet, ~700 kg dry
Launch date (UTC)
2024-12-04 (7 months ago)
Launch vehicle
FALCON 9
Launch site
Air Force Eastern Test Range (AFETR)
Object type
Payload
Rocket body
Debris
Shape & HBR
Box + 2 Pan, 29 m
Radar Cross Section
33.884 m², Large (>1 m²)

Expand to show TLE details & history

TLE from 7 hours ago
0 STARLINK-32660
1 62205U 24229P   25190.05040599  .00015658  00000-0  57727-3 0  9999
2 62205  42.9942 192.4659 0001486 281.4460  78.6224 15.27581672 34489
Epoch: 2025-07-09T01:12Z
TLE epoch observation values (Epoch: 2025-07-09T01:12:35.077Z)
Latitude
-0.00006°
Longitude
-112.91692°
Altitude
482.618 km
Speed
7.626 km/s
True Right ascension
12h 49m 51s
True Declination
0° 00' 00"
Sunlit
Object was in daylight at epoch
Visualization orbit readout
Latitude
19.0283°
Longitude
43.86551°
Altitude
482.966 km
Speed
7.627 km/s
Apparent Right ascension
02h 32m 35s
Apparent Declination
-22° 01' 03"
Sunlit
Object is in daylight
Visualization observer readout
Local Sidereal Time
20:18:26
Azimuth
105.167° ESE
Elevation
-16.525°
Doppler factor
1
Orbital elements
Apogee altitude
486.01 km
Perigee altitude
483.97 km
Semi-major axis
6,863.127 km
Eccentricity
0.00015
Inclination
42.9942°
RAAN
192.4659°
Arg. of periapsis
281.446°
True anomaly
Unknown
Mean anomaly
78.6224°
Eccentric anomaly
Unknown
Mean motion
3.81733 °/min
Orbital period
94.31 mins
BSTAR
0.00057727
Loading maneuver chart data...
Loading SW <> Apogee altitude chart data...
Loading historical data...
Loading historical data...
Loading historical data...
Loading historical data...
Loading historical data...
Loading historical data...
Loading historical data...

STARLINK-32660 Visibility forecast

Observer location: undefined°, undefined°

Span
Click to sort rows by Start time (UTC) header in descending order
Start Az.
Max El. time (UTC)
Max El. Az.
Max El.
End time (UTC)
End Az.
6 mins2025-07-09 09:32:49.437Z270.709° WNW2025-07-09 09:35:49.437Z204.498° SW27.719°2025-07-09 09:38:49.437Z148.245° SSE
4 mins2025-07-10 02:30:49.437Z171.669° S2025-07-10 02:31:49.437Z152.688° SSE16.932°2025-07-10 02:34:49.437Z99.719° ESE
5 mins2025-07-10 04:08:49.437Z241.336° WSW2025-07-10 04:10:49.437Z154.854° SSE44.259°2025-07-10 04:13:49.437Z74.139° E
5 mins2025-07-10 05:47:49.437Z287.94° WNW2025-07-10 05:49:49.437Z351.748° N38.382°2025-07-10 05:52:49.437Z71.229° E
5 mins2025-07-10 07:26:49.437Z292.821° NW2025-07-10 07:28:49.437Z337.765° N42.889°2025-07-10 07:31:49.437Z97.6° ESE
|